STARLINK-1258, 45381

Orbit data source: Space-Track

STARLINK-1258, 45381 is a payload satellite owned by SpaceX/Seattle (US) in LEO that was launched on Wed, 18 Mar 2020 UTC via an FALCON 9 launch vehicle from the Air Force Eastern Test Range (AFETR). Payloads include a variety of satellites, spacecraft, and rockets equipped with specific instruments for various scientific and technological missions. These include communications satellites like Starlink; space stations such as the ISS; scientific satellites like the Hubble; Earth observation satellites from companies like Planet Labs, Umbra, and HawkEye 360; GPS; miniature CubeSats for education and research; and military/defense satellites.

Loading next visibility...
STARLINK-1258 details
Identifier
45381, 2020-019X
Orbit
LEO
Last TLE update23 hours ago
Origin
Flag of USSpaceX/Seattle (US)
ManufacturerSpaceX/Seattle
MissionOperational Commercial Communications
Bus & MotorSTARLINK, Unknown motor
Mass260 kg wet, ~248 kg dry
Launch date (UTC)
2020-03-18 (5 years ago)
Launch vehicle
FALCON 9
Launch site
Air Force Eastern Test Range (AFETR)
Object type
Payload
Rocket body
Debris
Shape & HBRBox + 1 Pan, 8.86 m
Radar Cross Section13.562 m², Large (>1 m²)

Expand to show TLE details & history

TLE from 23 hours ago
0 STARLINK-1258
1 45381U 20019X   24347.46971385  .00014731  00000-0  10059-2 0  9999
2 45381  53.0554  16.7142 0001757  79.8160 280.3027 15.06394640261848
Epoch: 2024-12-12T11:16Z
Definitive object data (Epoch: 2024-12-12T11:16:23.276Z)
Latitude-0.00004°
Longitude125.9676°
Altitude547.89 km
Speed7.589 km/s
True Right ascension01h 06m 51s
True Declination0° 00' 00"
Sunlit
Object was in full shadow at TLE epoch
Visualization TLE readout
Latitude44.48711°
Longitude-105.57907°
Altitude550.727 km
Speed7.593 km/s
Apparent Right ascension14h 59m 35s
Apparent Declination28° 33' 38"
Sunlit
Object is in full shadow
Visualization observer readout
Local Sidereal Time08:35:20
Azimuth63.989° ENE
Elevation13.629°
Doppler factor1
Orbital elements
Apogee altitude548.715 km
Perigee altitude546.282 km
Semi-major axis6,925.636 km
Eccentricity0.0001757
Inclination53.0554°
RAAN16.7142°
Arg. of periapsis79.816°
True anomaly280.28289°
Mean anomaly280.3027°
Eccentric anomaly280.2928°
Mean motion3.76577 °/min
BSTAR0.0010059
Orbital period95.6 mins
Loading maneuver chart data...
Loading historical data...
Loading historical data...
Loading historical data...
Loading historical data...
Loading historical data...
Loading historical data...
Loading historical data...

STARLINK-1258 Visibility forecast

Observer location: undefined°, undefined

Span
Click to sort rows by Start time (UTC) header in descending order
Start Az.
Max El. time (UTC)
Max El. Az.
Max El.
End time (UTC)
End Az.
6 mins2024-12-13 11:40:28.502Z309.865° NW2024-12-13 11:43:28.502Z131.086° SE43.418°2024-12-13 11:46:28.502Z131.009° SE
4 mins2024-12-14 03:14:28.502Z153.832° SSE2024-12-14 03:16:28.502Z119.085° SE15.957°2024-12-14 03:18:28.502Z88.726° E
6 mins2024-12-14 04:52:28.502Z243.32° WSW2024-12-14 04:55:28.502Z351.818° N41.776°2024-12-14 04:58:28.502Z43.888° NE
4 mins2024-12-14 06:33:28.502Z309.529° NW2024-12-14 06:35:28.502Z344.91° N17.379°2024-12-14 06:37:28.502Z18.396° NNE
4 mins2024-12-14 09:55:28.502Z353.839° N2024-12-14 09:56:28.502Z15.167° NNE22.312°2024-12-14 09:59:28.502Z73.385° E
|